Location: Balmoral
(33.0667°S, 151.5833°E)
Time: 01:15:36
(UTC+00:00)

GPS 2-04 Rocket1 - Pass Details

Date: 18 September 2020
Orbit: 418 x 547 km, 35.6° (Epoch: 21 October)

Event Time Altitude Azimuth Distance (km) Brightness Sun altitude
Exits shadow 18:49:27 20° 250° (WSW) 1,033 3.7 -12.9°
Maximum altitude 18:51:39 71° 168° (SSE) 450 2.4 -12.5°
Drops below altitude 10° 18:55:04 10° 84° (E) 1,507 6.5 -11.8°
Sets 18:57:12 0° 81° (E) 2,376 7.8 -11.3°
